OZ1IEP-5 Weather Reports


time (UTC)temp
C
wind
direction
speed
KPH
gust
KPH
rain 1hr
cm
rain 24hr
cm
rain mn
cm
humidity
%
barometer
mb
20260903180008 17 252 1.6 20.9 0.00 0.43 0.43 90 1005.1
20260903175005 18 231 1.6 20.9 0.00 0.43 0.43 90 1004.8
20260903174005 18 242 3.2 32.2 0.00 0.43 0.43 90 1004.7
20260903173010 18 228 3.2 24.1 0.00 0.43 0.43 91 1004.8
20260903172005 18 227 1.6 22.5 0.00 0.43 0.43 91 1004.6
20260903171005 18 221 1.6 25.7 0.00 0.43 0.43 91 1004.6
20260903170008 18 236 3.2 24.1 0.00 0.43 0.43 91 1004.5
20260903165006 18 231 3.2 20.9 0.00 0.43 0.43 92 1004.5
20260903164005 18 232 1.6 16.1 0.00 0.43 0.43 92 1004.5
20260903163007 18 230 3.2 22.5 0.00 0.43 0.43 92 1004.5
20260903162006 18 232 3.2 24.1 0.00 0.43 0.43 92 1004.5
20260903161005 18 221 6.4 25.7 0.00 0.43 0.43 93 1004.5
20260903160007 18 233 8.0 22.5 0.00 0.43 0.43 93 1004.6
20260903155005 18 233 8.0 25.7 0.00 0.43 0.43 93 1004.6
20260903154006 19 244 3.2 19.3 0.03 0.43 0.43 93 1004.7
20260903153008 18 228 9.7 25.7 0.03 0.43 0.43 93 1004.7
20260903152006 18 207 1.6 19.3 0.03 0.43 0.43 94 1004.7
20260903151006 18 207 1.6 19.3 0.08 0.43 0.43 94 1004.6
20260903150008 18 200 4.8 16.1 0.08 0.43 0.43 94 1004.6
20260903145005 18 199 4.8 19.3 0.08 0.43 0.43 94 1004.6
20260903144006 18 220 3.2 19.3 0.05 0.43 0.41 94 1004.6
20260903143007 17 174 4.8 16.1 0.05 0.43 0.41 94 1004.7
20260903142006 17 194 4.8 14.5 0.05 0.43 0.41 94 1005.1
20260903141005 17 173 3.2 9.7 0.00 0.38 0.33 94 1005.1
20260903140007 17 165 4.8 14.5 0.00 0.38 0.33 94 1005.2
20260903135005 17 176 6.4 19.3 0.00 0.41 0.33 94 1005.3
20260903134005 17 175 3.2 19.3 0.00 0.41 0.33 94 1005.2
20260903133008 17 199 3.2 16.1 0.00 0.46 0.33 94 1005.5
20260903132006 17 172 8.0 16.1 0.00 0.46 0.33 94 1005.3
20260903131005 17 159 4.8 11.3 0.00 0.48 0.33 94 1005.6
20260903130008 17 173 6.4 16.1 0.03 0.48 0.33 94 1005.6
20260903125005 17 200 3.2 14.5 0.03 0.48 0.33 94 1005.7
20260903124005 17 175 4.8 14.5 0.05 0.71 0.33 94 1005.7
20260903123008 17 161 4.8 14.5 0.05 0.74 0.33 94 1005.7
20260903122006 16 171 3.2 19.3 0.05 0.74 0.33 94 1006.0
20260903121005 16 168 6.4 19.3 0.05 0.74 0.33 94 1006.1
20260903120007 16 185 8.0 25.7 0.03 0.71 0.33 94 1006.1
20260903115005 16 170 8.0 19.3 0.03 0.71 0.33 94 1006.2
20260903114006 16 172 3.2 16.1 0.00 0.71 0.30 94 1006.2
20260903113008 16 173 8.0 20.9 0.00 0.71 0.30 94 1006.4
20260903112005 16 169 4.8 16.1 0.00 0.71 0.30 94 1006.4
20260903111006 16 168 9.7 19.3 0.00 0.71 0.30 94 1006.6
20260903110007 16 170 6.4 19.3 0.00 0.71 0.30 94 1006.7
20260903105005 16 170 8.0 16.1 0.03 0.71 0.30 94 1006.8
20260903104005 16 185 8.0 19.3 0.03 0.71 0.30 94 1006.9
20260903103007 16 159 8.0 19.3 0.03 0.71 0.30 94 1007.2
20260903102005 16 154 8.0 19.3 0.03 0.71 0.30 94 1007.2
20260903101005 16 145 8.0 19.3 0.05 0.71 0.30 94 1007.4
20260903100007 16 157 4.8 19.3 0.05 0.71 0.30 94 1007.6
20260903095005 16 142 8.0 16.1 0.05 0.69 0.28 94 1007.8
20260903094006 16 168 8.0 19.3 0.05 0.69 0.28 94 1008.1
20260903093007 16 171 6.4 14.5 0.08 0.69 0.28 94 1008.2
20260903092006 15 168 8.0 16.1 0.10 0.69 0.28 94 1008.3
20260903091005 15 164 4.8 16.1 0.10 0.66 0.25 94 1008.5
20260903090007 15 177 4.8 11.3 0.10 0.64 0.23 94 1008.6
20260903085006 15 181 3.2 9.7 0.08 0.61 0.23 94 1008.8
20260903084005 15 167 8.0 19.3 0.08 0.61 0.23 94 1008.8
20260903083008 15 162 3.2 4.8 0.05 0.61 0.20 94 1008.8
20260903082005 15 166 1.6 8.0 0.05 0.58 0.18 94 1008.9
20260903081006 15 165 3.2 11.3 0.05 0.56 0.15 94 1009.1
20260903080008 15 179 1.6 11.3 0.03 0.53 0.15 94 1009.2
20260903075006 15 176 6.4 11.3 0.05 0.53 0.15 94 1009.3
20260903074006 15 187 3.2 4.8 0.05 0.53 0.15 94 1009.4
20260903073008 15 169 3.2 12.9 0.05 0.53 0.15 94 1009.4
20260903072005 15 179 4.8 9.7 0.03 0.51 0.13 94 1009.4
20260903071005 16 173 3.2 11.3 0.03 0.51 0.13 94 1009.7
20260903070008 16 175 3.2 9.7 0.03 0.51 0.13 94 1009.7
20260903065005 15 172 1.6 9.7 0.03 0.51 0.10 94 1009.8
20260903064006 15 169 3.2 8.0 0.03 0.51 0.10 94 1009.9
20260903063007 15 142 3.2 9.7 0.03 0.51 0.10 94 1009.9
20260903062006 15 169 3.2 9.7 0.03 0.51 0.10 94 1010.0
20260903061005 15 158 3.2 11.3 0.03 0.51 0.10 94 1010.1
20260903060008 15 167 6.4 11.3 0.03 0.51 0.10 94 1010.1
20260903055006 15 176 4.8 14.5 0.00 0.48 0.08 94 1010.3
20260903054008 15 164 6.4 11.3 0.00 0.48 0.08 94 1010.4
20260903053007 15 163 4.8 11.3 0.00 0.48 0.08 94 1010.4
20260903052006 15 172 6.4 11.3 0.00 0.48 0.08 93 1010.4
20260903051005 15 165 4.8 9.7 0.00 0.48 0.08 93 1010.6
20260903050008 15 155 1.6 4.8 0.00 0.48 0.08 93 1010.8
20260903045006 15 177 3.2 8.0 0.00 0.48 0.08 93 1010.8
20260903044005 15 176 1.6 8.0 0.00 0.48 0.08 93 1010.9
20260903043008 15 183 0.0 3.2 0.00 0.48 0.08 93 1010.9
20260903042006 15 184 0.0 4.8 0.00 0.48 0.08 93 1011.0
20260903041007 15 191 1.6 8.0 0.00 0.48 0.08 93 1011.0
20260903040010 15 196 1.6 4.8 0.00 0.48 0.08 93 1011.2
20260903035006 15 162 0.0 4.8 0.00 0.48 0.08 93 1011.3
20260903034006 15 183 0.0 3.2 0.00 0.48 0.08 93 1011.4
20260903033009 15 183 1.6 4.8 0.00 0.48 0.08 93 1011.4
20260903032006 15 183 0.0 4.8 0.00 0.48 0.08 93 1011.4
20260903031006 15 185 0.0 0.0 0.00 0.48 0.08 93 1011.5
20260903030008 15 186 0.0 4.8 0.03 0.48 0.08 93 1011.5
20260903025006 15 189 0.0 3.2 0.03 0.48 0.08 93 1011.6
20260903024006 15 189 0.0 4.8 0.05 0.48 0.08 93 1011.8
20260903023008 15 195 0.0 0.0 0.05 0.48 0.08 93 1011.8
20260903022006 15 219 0.0 1.6 0.05 0.48 0.08 93 1011.9
20260903021006 15 229 0.0 1.6 0.08 0.48 0.08 93 1012.0
20260903020008 15 229 0.0 3.2 0.05 0.46 0.05 93 1012.1
20260903015006 15 229 0.0 4.8 0.05 0.46 0.05 93 1012.3
20260903014006 15 231 1.6 8.0 0.05 0.43 0.05 93 1012.3
20260903013009 15 219 0.0 8.0 0.05 0.43 0.05 93 1012.5
20260903012006 15 181 0.0 4.8 0.05 0.43 0.05 93 1012.5
20260903011005 15 196 0.0 4.8 0.00 0.41 0.00 93 1012.5
20260903010008 15 194 0.0 3.2 0.00 0.41 0.00 93 1012.5
20260903005006 15 197 0.0 4.8 0.00 0.41 0.00 93 1012.5
20260903004006 15 217 0.0 4.8 0.00 0.41 0.00 93 1012.5
20260903003008 15 221 0.0 8.0 0.00 0.41 0.00 93 1012.6
20260903002006 15 231 1.6 11.3 0.00 0.41 0.00 93 1012.6
20260903001006 14 203 0.0 3.2 0.00 0.41 0.00 93 1012.7
20260903000008 14 202 1.6 9.7 0.00 0.41 0.00 93 1012.8
20260902235006 14 220 1.6 9.7 0.00 0.41 0.00 93 1012.8
20260902234006 14 241 1.6 9.7 0.00 0.41 0.00 93 1012.8
20260902233009 15 228 3.2 11.3 0.00 0.41 0.00 93 1012.9
20260902232006 15 224 1.6 12.9 0.00 0.41 0.00 93 1013.0
20260902231006 14 231 3.2 19.3 0.00 0.41 0.00 93 1013.0
20260902230008 14 218 1.6 4.8 0.00 0.41 0.00 93 1013.0
20260902225006 14 220 0.0 11.3 0.00 0.41 0.00 93 1013.0
20260902224006 14 235 4.8 11.3 0.00 0.41 0.00 93 1013.0
20260902223009 14 220 1.6 14.5 0.00 0.41 0.00 93 1013.0
20260902222006 15 227 1.6 16.1 0.00 0.41 0.00 93 1013.0
20260902221006 15 234 1.6 8.0 0.00 0.41 0.00 93 1013.0
20260902220008 15 231 1.6 9.7 0.00 0.41 0.00 93 1013.0
20260902215006 15 218 0.0 8.0 0.00 0.41 0.41 93 1013.0
20260902214005 15 224 0.0 16.1 0.00 0.43 0.41 93 1012.9
20260902213008 15 230 0.0 16.1 0.00 0.43 0.41 93 1012.8
20260902212006 15 237 1.6 12.9 0.00 0.43 0.41 93 1012.8
20260902211006 14 234 0.0 11.3 0.00 0.43 0.41 93 1012.9
20260902210008 14 176 0.0 0.0 0.00 0.43 0.41 93 1012.8
20260902205006 14 203 0.0 0.0 0.00 0.43 0.41 93 1012.8
20260902204006 14 197 0.0 1.6 0.00 0.43 0.41 93 1012.7
20260902203008 14 198 0.0 0.0 0.00 0.43 0.41 93 1012.9
20260902202006 14 215 0.0 4.8 0.00 0.43 0.41 93 1013.0
20260902201005 14 211 0.0 3.2 0.00 0.43 0.41 93 1013.0
20260902200009 15 230 0.0 4.8 0.00 0.43 0.41 93 1013.0
20260902195006 15 237 0.0 4.8 0.00 0.43 0.41 92 1013.0
20260902194005 15 216 0.0 4.8 0.00 0.43 0.41 92 1013.0
20260902193010 15 202 0.0 8.0 0.00 0.43 0.41 92 1013.0
20260902192007 15 216 0.0 4.8 0.00 0.43 0.41 92 1013.0
20260902191006 15 221 0.0 8.0 0.00 0.43 0.41 92 1013.0
20260902190020 15 231 0.0 9.7 0.00 0.43 0.41 92 1012.9
20260902185006 15 204 0.0 8.0 0.00 0.43 0.41 92 1012.7
20260902184006 15 230 0.0 4.8 0.00 0.43 0.41 92 1012.8
20260902183008 15 231 0.0 3.2 0.00 0.43 0.41 92 1012.7
20260902182005 15 219 1.6 9.7 0.00 0.43 0.41 92 1012.5
20260902181006 15 186 0.0 14.5 0.00 0.43 0.41 92 1012.5